Погода в Тубинском

Россия / Республика Башкортостан     52°53′15″N   58°13′02″E
В апреле 2022 года жителям России запретили посещать сайт meteo.paraplan.net по решению Генеральной прокуратуры. Аудитория сайта уменьшилась в 10 раз. Владельцы сайта не видят смысла в поддержке погодного сервера в таких условиях. Сайт будет закрыт в октябре.
темп.,
°C
ветер,
м/с
пор.,
м/с
влажн.,
%
обл.,
%
осадки,
мм/ч
давл.,
гПа
погр.,
м
3 октября, пн
пн323:00+3ю367760 0.0 1029134
02:00+2ююз35736 0.0 102980
05:00+1ююз337017 0.0 102940
08:00+2ююз346886 0.0 102964
11:00+7ю365498 0.0 1029298
14:00+10ю454757 0.0 1028610
17:00+9ю355387 0.0 1028300
20:00+4ю22645 0.0 103011
4 октября, вт
вт423:00+4ю22655 0.0 103110
02:00+3ююз22630 0.0 103110
05:00+2юз22574 0.0 103310
08:00+2ююз11515 0.0 103410
11:00+8ююв23350 0.0 1033357
14:00+11ююв34280 0.0 1033808
17:00+10ю3433100 0.0 1033583
20:00+5ю2243100 0.0 103510
5 октября, ср
ср523:00+4ю2244100 0.0 103510
02:00+3ююз224569 0.0 103511
05:00+3ююз2244100 0.0 103518
08:00+3ююз2245100 0.0 103537
11:00+8ю4633100 0.0 1034361
14:00+11ю5626100 0.0 1032721
17:00+10ю4632100 0.0 1031627
20:00+7ю3339100 0.0 103153
6 октября, чт
чт623:00+7ююв3635100 0.0 1030110
02:00+6ююв2237100 0.0 102824
05:00+6ю3935100 0.0 1026169
08:00+6ююз3935100 0.0 1025187
11:00+10юз3630100 0.0 1023387
14:00+7ююв3767100 0.9 1022242
17:00+10ю41039100 0.9 1020351
20:00+9ююз51549100 0.0 1019576
7 октября, пт
пт723:00+8ююз41157100 0.0 1018328
02:00+7юз3854100 0.0 1017258
05:00+7зюз3863100 0.0 1016236
08:00+6з610816 0.0 1016862
11:00+6з797373 0.1 1017940
14:00+7з8106298 0.0 10171186
17:00+7з7105695 0.0 10161315
20:00+6зюз5116498 0.0 1017692